Regional Weather Roundup
Issued by NWS

Home | Current Version | Previous Version | Graphics & Text | Print | Product List | Glossary On
Versions: 1 2 3 4 5 6 7 8 9 10 11 12 13 14 15 16 17 18 19 20 21 22 23 24 25 26 27
000
ASUS45 KTFX 210410
RWRMT
MONTANA REGIONAL WEATHER ROUNDUP
NATIONAL WEATHER SERVICE GREAT FALLS MT
1000 PM MDT SUN AUG 20 2017

NOTE: "FAIR" INDICATES FEW OR NO CLOUDS BELOW 12000 FEET WITH NO
SIGNIFICANT WEATHER AND/OR OBSTRUCTIONS TO VISIBILITY.

MTZ001>007-043-210500-
WEST OF THE DIVIDE

CITY           SKY/WX    TMP DP  RH WIND       PRES   REMARKS
KALISPELL      MOCLDY    62  39  42 CALM      30.05R
MISSOULA       MOCLDY    68  35  29 NW8       30.06R
BUTTE          CLOUDY    66  28  24 NW6       30.16R
MULLAN PASS    PTCLDY    54  32  43 NW5       30.22R
ANACONDA         N/A     61  32  33 W3        30.14R
DEER LODGE       N/A     64  32  29 N5        30.15R
EUREKA           N/A     72  37  28 MISG      30.04R
HAMILTON         N/A     59  45  58 CALM      30.08R
LIBBY            N/A     64  39  39 SE7       30.03R
PLAINS           N/A     63  42  46 CALM      30.06R
RONAN            N/A     59  43  55 CALM      30.11R
$$

MTZ008-052>055-210500-
SOUTHWEST MONTANA

CITY           SKY/WX    TMP DP  RH WIND       PRES   REMARKS
BOZEMAN        PTCLDY    63  27  25 NW8       30.08R
DILLON         PTCLDY    61  27  27 E8        30.10R
W YELLOWSTONE  CLOUDY    59  36  41 SW5       30.19R
ENNIS          CLOUDY    64  30  27 NE13      30.17R
THREE FORKS      N/A     68  32  26 CALM      30.07R
TWIN BRIDGES     N/A     72  26  18 N8        30.07R
$$

MTZ009-010-012-014-046-048-049-054-210500-
EAST SLOPES AND CENTRAL MONTANA

CITY           SKY/WX    TMP DP  RH WIND       PRES   REMARKS
CUT BANK       CLOUDY    64  34  32 NW7       30.06R
GREAT FALLS    CLOUDY    66  28  24 CALM      30.05R
MALMSTROM AFB  CLOUDY    67  30  24 N3        30.05R
HELENA         CLOUDY    70  30  22 W5        30.06R
AUGUSTA        MOCLDY    64  31  28 NW9       30.09R
BOWMANS CRNR   MOCLDY    65  29  25 W3        30.07R
CHOTEAU          N/A     63  34  34 NW9       30.08R
FAIRFIELD      MOCLDY    65  31  27 CALM      30.06R
POWER          CLOUDY    66  31  26 W8        30.05R
RAYNESFORD       N/A     58  28  31 CALM      30.08R
ULM              N/A     61  29  29 NE5       30.06R
$$

MTZ011-013-016-021-045-047-050-051-210500-
NORTH CENTRAL MONTANA

CITY           SKY/WX    TMP DP  RH WIND       PRES   REMARKS
HAVRE          CLOUDY    71  30  21 VRB5      29.99R
LEWISTOWN      PTCLDY    60  31  33 S6        30.07R
N BAR RANCH      N/A     61  30  31 NW6       30.10S
CHINOOK          N/A     70  30  23 NW5       29.99R
DENTON           N/A     67  30  25 S3        30.01R
GEYSER         MOCLDY    65  26  23 S7        30.06R
GRASS RANGE      N/A     59  30  33 W7        30.02R
JUDITH GAP     MOCLDY    59  31  34 NW8       30.08R
WINIFRED       MOCLDY    65  28  25 NE5       30.03R
$$

MTZ017>020-022>027-061-062-210500-
NORTHEAST MONTANA

CITY           SKY/WX    TMP DP  RH WIND       PRES   REMARKS
GLASGOW        CLOUDY    65  37  35 N7        29.94R
JORDAN           N/A     69  35  28 N12       29.97R
SIDNEY         CLOUDY    63  47  55 S3        29.98R
WOLF POINT     MOCLDY    72  41  32 VRB7      29.92R
MALTA          MOCLDY    70  28  21 N9        29.96R
PLENTYWOOD       N/A     66  41  39 SE10      29.94S
POPLAR           N/A     70  43  37 SE12      29.92F
SCOBEY           N/A     65  35  32 S2        29.95R
$$

MTZ028>42-056>058-210500-
SOUTHCENTRAL AND SOUTHEAST MONTANA

CITY           SKY/WX    TMP DP  RH WIND       PRES   REMARKS
BAKER          CLOUDY    65  44  46 SE21G28   29.99R
BILLINGS       MOCLDY    73  35  25 N14       30.02R
LIVINGSTON     PTCLDY    61  32  33 SW3       30.08R
MILES CITY     CLOUDY    74  41  30 NE14      29.92R
BIG TIMBER     CLEAR     68  25  19 S3        30.10R
EKALAKA          N/A     66  41  40 SE13      29.97R
HARLOWTON      MOCLDY    64  29  27 MISG      30.07R
LAUREL           N/A     70  34  26 MISG      30.02S
$$

REGIONAL REPORTS...DAKOTAS

CITY           SKY/WX    TMP DP  RH WIND       PRES   REMARKS
WILLISTON      CLOUDY    67  47  48 S9        29.98S
MINOT          MOCLDY    64  49  57 SE3       30.00S
DICKINSON      MOCLDY    57  47  69 SE10      30.01S
BEACH            N/A     63  43  48 SE15      30.01F
CROSBY           N/A     66  43  42 S16       29.96S
TIOGA          CLOUDY    64  46  52 S12       30.01F
WATFORD CITY   MOCLDY    61  45  55 CALM      30.00S
BISMARCK       CLOUDY    58  54  86 SE3       30.05R
GRAND FORKS    PTCLDY    55  51  86 SW5       30.01R
FARGO          PTCLDY    63  55  75 S5        30.03R
BUFFALO SD       N/A     67  46  47 E15       29.95S
RAPID CITY     CLEAR     69  54  58 SE16      30.02R
$$

REGIONAL REPORTS...WYOMING/IDAHO/WASHINGTON

CITY           SKY/WX    TMP DP  RH WIND       PRES   REMARKS
GILLETTE       CLEAR     73  50  44 S9        30.00R
SHERIDAN       CLOUDY    69  38  32 W8        30.03R
BUFFALO WY     CLEAR     73  35  25 NW15G24   30.08R
CODY           CLOUDY    65  37  35 N3        30.12R
YELLOWSTONE LA   N/A     49  38  65 CALM      30.29R
IDAHO FALLS    CLOUDY    73  35  25 S12       30.05R
SALMON         MOCLDY    68  35  29 CALM      30.05R
BOISE          PTCLDY    72  36  26 CALM      29.99R
SPOKANE        PTCLDY    72  37  28 S7        30.04R
$$

REGIONAL REPORTS...ALBERTA

CITY           SKY/WX    TMP DP  RH WIND       PRES   REMARKS
EDMONTON       CLEAR     50  45  81 W7        30.02R
CALGARY        MOCLDY    55  41  58 N7        30.08R
LETHBRIDGE     CLOUDY    64  37  36 CALM      30.01R
MEDICINE HAT   CLOUDY    64  45  48 SW3       29.98R
$$

REGIONAL REPORTS...SASKATCHEWAN

CITY           SKY/WX    TMP DP  RH WIND       PRES   REMARKS
SWIFT CURRENT  CLEAR     57  36  44 N14       29.97R
REGINA         CLOUDY    63  37  39 E13G18    29.92S
SASKATOON      MOCLDY    55  45  67 W8        29.96R
$$




USA.gov is the U.S. government's official web portal to all federal, state and local government web resources and services.